Aiguebelle, Quebec

11:51 AM EST on January 24, 2017 (GMT -0500)
Rouyn-Noranda

Weather History for CYUY - May, 2013

Change the Weather History Date:

Monday, May 27, 2013

  Actual Average Record
Temperature  
Mean Temperature 46 °F -  
Max Temperature 66 °F - - ()
Min Temperature 26 °F - - ()
Degree Days  
Heating Degree Days 19    
Moisture  
Dew Point 23 °F    
Average Humidity 41    
Maximum Humidity 80    
Minimum Humidity 15    
Precipitation  
Precipitation 0.00 in - - ()
Sea Level Pressure  
Sea Level Pressure 30.23 in    
Wind  
Wind Speed 3 mph ()    
Max Wind Speed 10 mph    
Max Gust Speed 18 mph    
Visibility 15.0 miles    
Events      
T = Trace of Precipitation, MM = Missing Value Source: Averaged Metar Reports

Daily Weather History Graph

Daily Weather History Graph

Search for Another Location

Airport or City:

Trip Planner

Search our weather history database for the weather conditions in past years. The results will help you decide how hot, cold, wet, or windy it might be!

Date:

Astronomy

May. 27, 2013 Rise Set
Actual Time 6:22 AM ADT 10:02 PM ADT
Civil Twilight 5:43 AM ADT 10:42 PM ADT
Nautical Twilight 4:50 AM ADT 11:35 PM ADT
Astronomical Twilight 3:35 AM ADT 12:51 AM ADT
Moon No Moon Rise 9:01 AM ADT (5/27)
Length of Visible Light 16h 58m
Length of Day
15h 40m
Waning Gibbous, 91% of the Moon is Illuminated
May 27
Waning Gibbous
May 31
Last Quarter
Jun 8
New
Jun 16
First Quarter
Jun 23
Full

Hourly Weather History & Observations

Time (ADT) Temp. Windchill Dew Point Humidity Pressure Visibility Wind Dir Wind Speed Gust Speed Precip Events Conditions
12:00 AM 48.2 °F - 23.0 °F 37% 30.23 in 15.0 mi North 4.6 mph - N/A   Clear
1:00 AM 44.6 °F 41.4 °F 21.2 °F 39% 30.24 in 15.0 mi NNE 5.8 mph - N/A   Clear
2:00 AM 42.8 °F 40.1 °F 17.6 °F 36% 30.25 in 15.0 mi North 4.6 mph - N/A   Clear
3:00 AM 35.6 °F - 24.8 °F 65% 30.26 in 15.0 mi North 2.3 mph - N/A   Clear
4:00 AM 30.2 °F - 21.2 °F 69% 30.26 in 15.0 mi Variable 2.3 mph - N/A   Clear
5:00 AM 28.4 °F - 21.2 °F 74% 30.26 in 15.0 mi Calm Calm - N/A   Partly Cloudy
6:00 AM 28.4 °F - 23.0 °F 80% 30.26 in 15.0 mi Calm Calm - N/A   Partly Cloudy
7:00 AM 26.6 °F 22.6 °F 21.2 °F 80% 30.28 in 15.0 mi WSW 3.5 mph - N/A   Partly Cloudy
8:00 AM 35.6 °F - 23.0 °F 60% 30.27 in 15.0 mi Calm Calm - N/A   Clear
9:00 AM 41.0 °F - 21.2 °F 45% 30.28 in 15.0 mi Variable 2.3 mph - N/A   Clear
10:00 AM 46.4 °F - 24.8 °F 43% 30.30 in 15.0 mi Calm Calm - N/A   Clear
11:00 AM 51.8 °F - 26.6 °F 38% 30.29 in 15.0 mi NW 5.8 mph - N/A   Clear
12:00 PM 55.4 °F - 24.8 °F 31% 30.27 in 15.0 mi North 3.5 mph - N/A   Clear
1:00 PM 57.2 °F - 26.6 °F 31% 30.25 in 15.0 mi Variable 2.3 mph - N/A   Clear
2:00 PM 60.8 °F - 26.6 °F 27% 30.24 in 15.0 mi Variable 2.3 mph - N/A   Clear
3:00 PM 62.6 °F - 26.6 °F 26% 30.22 in 15.0 mi WNW 9.2 mph 18.4 mph N/A   Clear
4:00 PM 64.4 °F - 24.8 °F 22% 30.20 in 15.0 mi West 6.9 mph - N/A   Clear
5:00 PM 64.4 °F - 21.2 °F 19% 30.19 in 15.0 mi NW 10.4 mph - N/A   Partly Cloudy
6:00 PM 66.2 °F - 19.4 °F 17% 30.18 in 15.0 mi NW 8.1 mph - N/A   Partly Cloudy
7:00 PM 66.2 °F - 17.6 °F 15% 30.16 in 15.0 mi NW 4.6 mph - N/A   Partly Cloudy
8:00 PM 66.2 °F - 17.6 °F 15% 30.13 in 15.0 mi North 4.6 mph - N/A   Partly Cloudy
9:00 PM 62.6 °F - 17.6 °F 18% 30.13 in 15.0 mi WNW 3.5 mph - N/A   Mostly Cloudy
10:00 PM 53.6 °F - 30.2 °F 41% 30.14 in 15.0 mi East 2.3 mph - N/A   Mostly Cloudy
11:00 PM 46.4 °F - 28.4 °F 50% 30.15 in 15.0 mi Calm Calm - N/A   Scattered Clouds